Regional Weather Roundup
Issued by NWS

Home | Current Version | Previous Version | Graphics & Text | Print | Product List | Glossary On
Versions: 1 2 3 4 5 6 7 8 9 10 11 12 13 14 15 16 17 18 19 20 21 22 23 24 25 26 27 28 29 30 31 32 33 34 35 36 37 38 39 40 41 42 43 44 45 46 47 48 49 50
000
ASUS43 KLMK 060410
RWRKY
KENTUCKY REGIONAL WEATHER ROUNDUP
NATIONAL WEATHER SERVICE LOUISVILLE KY
1100 PM EST THU MAR 05 2015

NOTE "FAIR" INDICATES FEW OR NO CLOUDS BELOW 12,000 FEET
WITH NO SIGNIFICANT WEATHER AND/OR OBSTRUCTIONS TO VISIBILITY.

KYZ001>023-026-027-061>063-070>075-060500-
WESTERN AND SOUTH CENTRAL KENTUCKY

CITY           SKY/WX    TMP DP  RH WIND       PRES   REMARKS
PADUCAH        PTCLDY    13   4  67 NE3       30.60R
HENDERSON      MOCLDY    12   3  67 NE3       30.61R
OWENSBORO      MOCLDY    13   3  64 N5        30.61R WCI   5
HOPKINSVILLE   PTCLDY    13   4  64 N5        30.58R WCI   6
BOWLING GREEN  MOCLDY    15   5  64 NW5       30.57R WCI   8
GLASGOW        MOCLDY    12   6  78 NW3       30.54R
$$

KYZ024-025-028>034-038-045-046-053-060500-
NORTH CENTRAL KENTUCKY

CITY           SKY/WX    TMP DP  RH WIND       PRES   REMARKS
LOUISVILLE/SDF PTCLDY    19   9  65 N7        30.56R WCI  10
LOUISVILLE/LOU PTCLDY    18   8  65 N3        30.56S
FORT KNOX      MOCLDY    15   5  65 NW8       30.53R WCI   4
$$

KYZ035>037-039>044-047>052-055>060-089>105-060500-
NORTHEAST KENTUCKY

CITY           SKY/WX    TMP DP  RH WIND       PRES   REMARKS
LEXINGTON      MIX PCPN  10   6  84 NE8       30.52R WCI  -2
COVINGTON      PTCLDY    13   3  64 N3        30.54R
FRANKFORT      PTCLDY     5   1  83 N3        30.52S
$$

KYZ054-064>069-076>088-106>120-060500-
SOUTHEAST KENTUCKY

CITY           SKY/WX    TMP DP  RH WIND       PRES   REMARKS
JACKSON        PTCLDY    13   7  77 CALM      30.47F
LONDON         PTCLDY    11   6  81 CALM      30.49S HAZE
SOMERSET       MOCLDY    10   9  92 CALM      30.54R
MIDDLESBORO    CLOUDY    19  13  76 N8        30.49S WCI   9
MONTICELLO     FOG       -3  -7  83 CALM      30.55R VSB<1/4
$$



USA.gov is the U.S. government's official web portal to all federal, state and local government web resources and services.